Weather History for Montrose, CO

Change the Weather History Date:

Saturday, March 29, 2014

  Actual Average Record
Temperature  
Mean Temperature 47 °F 44 °F  
Max Temperature 66 °F 58 °F 69 °F (2012)
Min Temperature 27 °F 31 °F 18 °F (2003)
Degree Days  
Heating Degree Days 18 20  
Month to date heating degree days 633 699  
Since 1 July heating degree days 5365 5414  
Cooling Degree Days 0 0  
Month to date cooling degree days 0 0  
Year to date cooling degree days 0 0  
Moisture  
Dew Point 15 °F    
Average Humidity 38    
Maximum Humidity 63    
Minimum Humidity 12    
Precipitation  
Precipitation 0.00 in 0.03 in 0.18 in (2006)
Month to date precipitation 0.61 0.94  
Year to date precipitation 1.66 2.17  
Sea Level Pressure  
Sea Level Pressure 30.10 in    
Wind  
Wind Speed 7 mph (SSE)    
Max Wind Speed 21 mph    
Max Gust Speed 28 mph    
Visibility 10 miles    
Events      
T = Trace of Precipitation, MM = Missing Value Source: NWS Daily Summary

Daily Weather History Graph

Daily Weather History Graph

Search for Another Location

Airport:

Trip Planner

Search our weather history database for the weather conditions in past years. The results will help you decide how hot, cold, wet, or windy it might be!

Date:

Astronomy

Mar. 29, 2014 Rise Set
Actual Time 7:00 AM MDT 7:32 PM MDT
Civil Twilight 6:34 AM MDT 7:58 PM MDT
Nautical Twilight 6:03 AM MDT 8:30 PM MDT
Astronomical Twilight 5:31 AM MDT 9:02 PM MDT
Moon 6:10 AM MDT (3/29) 6:41 PM MDT (3/29)
Length of Visible Light 13h 24m
Length of Day
12h 31m
Waning Crescent, 1% of the Moon is Illuminated
Mar 29
Waning Crescent
Mar 30
New
Apr 7
First Quarter
Apr 15
Full
Apr 22
Last Quarter

Hourly Weather History & Observations

Time (MDT) Temp. Windchill Dew Point Humidity Pressure Visibility Wind Dir Wind Speed Gust Speed Precip Events Conditions
12:53 AM 35.1 °F 27.4 °F 16.0 °F 46% 30.21 in 10.0 mi SE 10.4 mph - N/A   Clear
1:53 AM 36.0 °F 27.1 °F 17.1 °F 46% 30.21 in 10.0 mi SE 13.8 mph - N/A   Clear
2:53 AM 35.1 °F 26.9 °F 16.0 °F 46% 30.19 in 10.0 mi SE 11.5 mph - N/A   Clear
3:53 AM 28.9 °F 21.9 °F 17.1 °F 61% 30.21 in 10.0 mi ESE 6.9 mph - N/A   Clear
4:53 AM 28.9 °F 23.9 °F 16.0 °F 58% 30.21 in 10.0 mi SSE 4.6 mph - N/A   Clear
5:53 AM 30.0 °F 23.2 °F 16.0 °F 56% 30.21 in 10.0 mi SSE 6.9 mph - N/A   Clear
6:53 AM 28.0 °F 21.7 °F 16.0 °F 61% 30.24 in 10.0 mi East 5.8 mph - N/A   Clear
7:53 AM 30.9 °F - 17.1 °F 57% 30.25 in 10.0 mi Calm Calm - N/A   Clear
8:53 AM 39.0 °F - 16.0 °F 39% 30.24 in 10.0 mi Calm Calm - N/A   Clear
9:53 AM 46.9 °F - 15.1 °F 28% 30.22 in 10.0 mi East 10.4 mph - N/A   Clear
10:53 AM 51.1 °F - 16.0 °F 25% 30.19 in 10.0 mi North 6.9 mph - N/A   Clear
11:53 AM 55.0 °F - 17.1 °F 23% 30.13 in 10.0 mi Variable 4.6 mph - N/A   Clear
12:53 PM 57.9 °F - 16.0 °F 19% 30.09 in 10.0 mi Variable 4.6 mph - N/A   Clear
1:53 PM 60.1 °F - 15.1 °F 17% 30.04 in 10.0 mi Variable 4.6 mph 17.3 mph N/A   Clear
2:53 PM 64.0 °F - 12.0 °F 13% 30.00 in 10.0 mi WSW 10.4 mph 18.4 mph N/A   Clear
3:17 PM 64.9 °F - 10.9 °F 12% 30.10 in 10.0 mi West 17.3 mph 25.3 mph N/A   Clear
3:53 PM 63.0 °F - 10.0 °F 13% 29.99 in 10.0 mi WSW 10.4 mph - N/A   Clear
4:53 PM 64.0 °F - 10.9 °F 13% 29.97 in 10.0 mi West 9.2 mph - N/A   Clear
5:53 PM 61.0 °F - 10.9 °F 14% 29.96 in 10.0 mi WSW 9.2 mph - N/A   Clear
6:53 PM 60.1 °F - 12.0 °F 15% 29.98 in 10.0 mi SW 8.1 mph - N/A   Clear
7:53 PM 57.0 °F - 14.0 °F 18% 29.98 in 10.0 mi SW 6.9 mph - N/A   Clear
8:53 PM 54.0 °F - 15.1 °F 22% 29.97 in 10.0 mi SSE 8.1 mph - N/A   Clear
9:53 PM 48.9 °F - 16.0 °F 27% 29.96 in 10.0 mi ESE 9.2 mph - N/A   Clear
10:53 PM 48.0 °F - 17.1 °F 29% 29.93 in 10.0 mi ESE 13.8 mph - N/A   Clear
11:53 PM 48.9 °F - 16.0 °F 27% 29.90 in 10.0 mi East 9.2 mph - N/A   Clear